Temperature
18 18 17 17 17 17 17 16 16 16 16 16 16 15 15 15 15 15 15 14 14 14 14 14 14 14 13 13 13 13 13 13 12 12 12 12 12 12 12 12 12 11 11
18 17 17 17 17 17 16 16 16 16 16 16 15 15 15 15 15 15 14 14 14 14 14 14 13 13 13 13 13 13 13 12 12 12 12 12 12 12 12 12 11 11 11
18 17 17 17 17 17 16 16 16 16 16 15 15 15 15 15 15 14 14 14 14 14 14 13 13 13 13 13 13 13 12 12 12 12 12 12 12 12 11 11 11 11 11
18 17 17 17 17 16 16 16 16 16 15 15 15 15 15 15 14 14 14 14 14 13 13 13 13 13 13 13 12 12 12 12 12 12 11 11 11 11 11 11 11 11 11
17 17 17 17 16 16 16 16 16 15 15 15 15 15 14 14 14 14 14 14 13 13 13 13 13 13 13 12 12 12 12 12 11 11 11 11 11 11 11 11 11 10 10
17 17 17 16 16 16 16 16 15 15 15 15 15 15 14 14 14 14 14 13 13 13 13 13 13 12 12 12 12 12 12 11 11 11 11 11 10 10 10 10 10 10 10
17 17 16 16 16 16 15 15 15 15 15 15 15 14 14 14 14 13 13 13 13 13 13 12 12 12 12 12 12 11 11 11 11 11 10 10 10 10 10 9 9 9 9
17 16 16 16 16 15 15 15 15 15 14 14 14 14 14 13 13 13 13 13 12 12 12 12 12 12 12 11 11 11 11 10 10 10 10 10 9 9 9 9 9 9 9
16 16 16 16 15 15 15 15 14 14 14 14 14 14 13 13 13 12 12 12 12 12 12 12 11 11 11 11 11 10 10 10 10 10 10 9 9 9 9 9 8 8 8
16 16 16 16 15 15 15 14 14 14 14 14 13 13 13 13 12 12 12 12 12 12 11 11 11 11 11 10 10 10 10 10 9 9 9 9 9 9 8 8 8 7 7
16 16 16 15 15 15 14 14 14 13 13 13 13 13 13 12 12 12 11 11 11 11 11 11 10 10 10 10 10 10 9 9 9 9 9 8 8 8 8 7 7 7 6
16 15 15 15 15 14 14 14 13 13 13 13 13 12 12 12 12 11 11 11 11 11 10 10 10 10 9 9 9 9 9 8 8 8 8 8 8 8 7 7 7 6 6
15 15 15 15 14 14 14 13 13 13 13 12 12 12 12 12 11 11 11 10 10 10 10 10 9 9 9 9 9 8 8 8 8 8 7 7 7 7 7 6 6 6 6
15 15 15 14 14 14 13 13 13 13 12 12 12 12 11 11 11 11 10 10 10 10 9 9 9 9 8 8 8 8 8 7 7 7 7 6 6 6 6 6 6 5 5
15 15 14 14 14 13 13 13 12 12 12 12 12 11 11 11 11 10 10 10 10 9 9 9 9 8 8 8 8 7 7 7 7 6 6 6 6 6 5 5 5 5 5
14 14 14 14 13 13 13 12 12 12 12 11 11 11 11 11 10 10 10 9 9 9 9 9 8 8 7 7 7 7 7 6 6 6 5 5 5 5 5 5 4 4 4
14 14 13 13 13 12 12 12 12 11 11 11 11 10 10 10 10 10 9 9 9 9 8 8 8 7 7 7 7 6 6 6 5 5 5 5 5 4 4 4 4 3 3
13 13 13 12 12 12 12 11 11 11 11 11 10 10 10 10 9 9 9 9 8 8 8 8 7 7 7 6 6 6 6 5 5 5 4 4 4 4 4 3 3 3 3
12 12 12 12 12 11 11 11 11 10 10 10 10 9 9 9 9 9 9 8 8 8 7 7 7 7 6 6 6 5 5 5 5 4 4 4 4 3 3 3 3 3 2
12 12 11 11 11 11 10 10 10 10 10 9 9 9 9 9 8 8 8 8 8 7 7 7 7 6 6 6 5 5 5 5 4 4 4 3 3 3 3 2 2 2 2
11 11 11 11 10 10 10 10 9 9 9 9 9 9 8 8 8 8 8 7 7 7 7 7 6 6 6 5 5 5 5 4 4 4 4 3 3 3 2 2 2 2 1
11 10 10 10 10 10 9 9 9 9 9 8 8 8 8 8 7 7 7 7 7 6 6 6 6 6 5 5 5 4 4 4 4 3 3 3 3 2 2 2 1 1 1
10 10 10 9 9 9 9 9 8 8 8 8 7 7 7 7 7 7 7 6 6 6 6 6 5 5 5 5 4 4 4 3 3 3 3 3 2 2 2 1 1 1 0
9 9 9 9 9 8 8 8 8 8 8 7 7 7 7 7 7 6 6 6 6 6 5 5 5 5 5 4 4 4 3 3 3 3 3 2 2 2 1 1 1 0 0
9 9 9 8 8 8 8 8 8 7 7 7 7 7 7 6 6 6 6 6 5 5 5 5 5 4 4 4 4 3 3 3 3 2 2 2 1 1 1 1 0 -0 -0
8 8 8 8 8 8 8 7 7 7 7 6 6 6 6 6 6 6 5 5 5 5 5 4 4 4 4 3 3 3 2 2 2 2 2 1 1 1 1 0 -0 -1 -1
Wind_Speed
5 5 4 4 4 3 3 4 4 4 4 4 4 3 3 3 3 3 3 3 3 2 1 2 1 1 1 1 1 2 2 3 3 2 1 1 1 1 2 2 3 3 3
6 5 5 4 4 3 3 3 3 4 4 4 4 3 3 3 3 4 3 3 3 2 2 2 1 2 2 1 1 1 1 2 3 2 1 1 1 1 1 2 3 3 3
5 6 5 4 4 4 3 3 3 4 3 3 3 3 3 3 3 3 4 3 3 3 3 3 2 2 1 1 1 1 1 1 2 2 1 1 1 1 2 2 3 3 4
6 6 5 5 5 5 4 3 3 4 3 3 3 3 3 3 3 3 3 3 2 2 2 2 3 3 3 2 1 1 1 2 2 1 0 1 1 2 1 1 3 3 3
6 6 5 5 4 4 3 3 3 3 3 3 3 3 2 3 3 4 4 3 3 1 0 1 2 2 3 3 2 2 3 2 2 1 0 1 2 1 2 1 2 3 3
6 6 5 5 4 4 4 4 4 3 3 3 3 3 2 2 4 5 5 3 3 2 1 1 1 0 0 1 2 3 4 4 3 2 2 2 3 2 2 1 1 1 3
6 5 5 6 5 5 5 4 4 3 3 3 3 3 3 2 4 5 6 4 3 2 2 1 0 1 0 0 0 0 1 2 4 4 4 4 3 3 2 1 1 2 3
6 6 6 6 5 5 5 5 4 3 3 3 3 3 2 2 4 5 5 4 2 1 2 2 1 1 0 1 1 0 1 1 2 2 3 3 2 2 3 2 2 1 2
7 7 7 7 6 6 5 5 4 4 3 3 3 3 3 2 3 4 4 3 2 2 1 1 1 2 1 1 2 1 1 2 1 1 1 0 1 1 1 2 1 1 2
8 7 7 7 7 7 6 5 3 4 3 3 2 2 3 3 3 4 4 3 2 1 1 1 1 1 1 2 3 3 2 2 1 1 2 2 2 2 2 1 2 1 1
7 6 6 6 7 6 5 4 4 4 3 2 2 0 1 2 3 4 4 3 3 2 1 1 1 1 1 1 2 3 3 2 1 1 0 1 1 2 2 1 1 2 2
6 7 6 6 5 5 5 4 4 5 4 3 2 0 1 1 1 2 4 4 3 3 3 2 2 1 1 2 1 1 1 1 1 1 0 1 1 1 2 1 0 1 1
7 7 6 6 5 5 6 6 4 4 4 3 2 2 1 1 1 2 3 3 3 2 2 3 2 1 1 1 1 1 1 1 1 0 1 2 2 2 1 1 2 2 2
7 6 6 6 5 4 4 5 5 4 4 3 3 3 2 1 1 1 1 1 2 1 1 0 1 0 0 0 1 1 0 2 2 2 2 2 1 1 1 1 1 1 1
6 6 6 5 5 4 4 3 4 5 6 6 5 4 4 3 4 4 3 2 2 2 1 1 1 1 0 1 1 0 0 0 0 1 1 1 1 1 2 1 1 1 1
5 5 5 5 4 4 4 2 1 2 4 5 6 5 4 4 4 4 4 3 3 3 2 1 1 2 2 2 1 1 0 1 1 1 0 1 1 2 2 2 1 1 2
5 5 4 5 5 5 4 4 2 1 0 2 3 4 4 3 3 4 4 3 3 4 2 2 2 3 3 2 2 2 2 2 1 1 1 2 2 2 2 2 2 2 2
4 4 5 5 5 5 4 4 4 4 2 1 2 2 3 3 3 3 4 4 1 1 2 3 3 3 3 3 3 2 2 2 1 2 2 2 2 2 2 2 2 3 3
4 3 3 3 4 4 4 3 3 3 2 1 0 1 1 2 2 2 4 2 3 3 3 3 3 3 3 3 3 2 2 2 2 2 2 2 2 2 2 3 3 3 3
3 4 3 3 3 3 3 3 3 2 2 2 2 2 2 2 1 1 2 2 3 3 3 3 3 3 3 3 2 2 2 2 2 2 2 2 2 2 2 3 3 3 3
2 3 3 3 3 3 3 3 3 3 3 2 2 2 3 3 3 3 3 3 3 3 3 3 2 2 2 2 2 3 3 3 3 2 2 2 2 2 3 3 3 3 3
3 2 2 2 2 2 2 3 2 3 3 3 2 1 2 2 2 2 2 3 3 3 3 3 3 3 3 3 3 2 2 3 3 3 3 2 2 3 3 3 3 3 4
3 2 2 2 2 2 2 2 3 3 3 3 3 2 2 2 2 2 3 3 3 3 3 3 3 3 3 3 3 3 3 4 4 3 3 3 3 3 3 3 4 4 4
3 3 2 2 2 3 3 3 2 2 3 3 3 3 3 3 3 3 3 3 3 3 3 3 3 4 4 2 2 3 4 4 4 4 4 3 3 3 3 3 4 5 5
3 2 2 3 3 3 3 2 2 2 2 2 2 2 3 2 3 3 3 3 3 3 3 3 3 3 4 4 3 3 4 5 4 3 3 3 3 3 3 4 4 5 5
3 2 2 2 2 3 3 3 2 2 2 2 2 2 2 2 3 2 2 2 2 2 3 3 3 4 4 4 5 5 5 5 5 5 3 2 3 3 4 4 5 5 5
Wind_Direction
175 173 165 171 176 164 166 179 180 172 165 163 164 155 155 157 146 134 146 139 134 124 105 118 116 111 103 86 99 109 120 133 156 273 301 325 351 339 347 339 329 326 333
170 159 161 159 151 151 161 172 165 157 162 160 154 149 160 164 155 149 157 150 151 155 158 134 152 122 103 98 102 107 131 145 151 201 304 339 306 284 323 336 347 331 322
162 158 158 156 154 166 172 165 156 154 154 149 148 153 162 162 157 165 159 152 155 163 167 164 184 146 146 153 135 125 132 123 130 152 253 308 316 324 342 342 351 347 336
163 161 164 170 174 177 170 156 151 148 146 145 147 158 160 149 144 149 147 147 145 157 180 180 182 175 188 191 176 183 155 128 119 124 255 306 312 317 13 321 330 324 323
161 165 177 176 168 160 157 154 146 143 146 140 128 122 132 140 148 149 152 149 148 152 202 229 206 185 189 183 175 179 160 155 148 151 235 326 316 318 286 269 297 313 312
162 173 171 158 153 156 160 151 140 141 140 128 136 137 133 140 134 138 143 149 148 154 181 299 306 313 197 184 184 170 163 169 186 186 211 230 260 258 266 272 284 332 309
166 169 165 161 161 166 160 147 152 159 145 139 147 145 149 166 142 137 138 143 151 168 184 190 14 20 31 182 314 254 197 196 183 182 197 224 231 236 216 244 237 231 258
168 171 170 165 167 163 153 159 167 160 155 160 163 164 160 174 154 147 146 142 145 180 199 196 193 250 190 151 149 90 305 296 220 179 192 220 228 222 203 206 216 243 289
174 179 179 172 168 163 164 171 167 156 157 165 166 165 166 199 174 164 149 153 163 219 232 204 198 226 244 150 140 167 300 313 7 119 167 217 347 23 100 89 62 48 305
187 184 177 170 169 172 176 173 158 154 163 158 162 175 178 198 194 179 156 157 171 221 288 291 249 239 245 183 164 168 211 264 301 30 33 20 31 32 38 108 169 192 254
182 170 168 169 170 169 164 156 148 148 143 143 148 193 195 196 192 184 169 169 181 193 231 276 278 281 259 206 186 190 220 231 191 164 169 344 3 6 6 21 160 183 206
164 162 169 172 171 162 153 155 151 148 145 150 144 65 322 273 192 194 191 191 181 188 219 235 248 274 265 258 237 250 235 100 120 111 44 318 306 301 303 346 29 170 191
161 168 170 167 166 162 162 161 152 153 160 172 169 192 256 280 247 211 199 201 201 208 222 228 243 263 266 266 257 244 150 132 134 146 269 282 275 272 308 6 16 29 14
169 172 167 163 163 160 160 164 163 168 173 182 190 205 232 256 246 228 207 200 195 200 209 267 291 288 243 296 348 331 152 168 174 209 243 268 291 306 293 275 286 307 331
164 169 168 168 165 160 160 174 183 193 192 193 200 197 196 223 234 211 190 198 200 194 148 81 63 60 50 16 6 342 49 107 210 256 250 287 296 299 292 276 253 268 281
162 172 172 165 163 162 157 133 77 189 202 203 203 199 213 219 220 206 201 192 181 157 122 152 199 208 212 212 211 246 274 240 235 223 263 279 281 285 292 294 278 250 264
163 170 165 164 165 167 168 167 166 17 106 210 215 209 208 204 197 193 189 172 161 142 152 205 216 222 224 222 214 214 242 251 232 214 239 256 267 279 287 285 278 270 272
151 157 160 166 166 170 176 181 181 179 189 280 282 230 198 183 178 170 150 122 135 166 207 219 227 227 225 226 228 228 232 235 229 235 243 250 252 266 278 281 273 269 271
146 151 158 160 160 164 166 165 170 178 187 201 224 299 209 170 150 148 140 159 196 215 226 231 231 227 229 225 226 230 228 229 232 234 239 245 246 254 268 271 271 279 280
136 136 137 150 149 150 156 160 166 174 188 198 203 204 161 124 149 190 197 205 208 220 224 226 229 229 228 225 223 221 226 229 226 227 240 245 244 242 254 267 273 278 275
131 142 128 138 159 169 169 173 178 183 194 208 221 211 186 180 194 202 209 217 218 223 226 227 226 229 231 228 225 219 221 231 229 225 233 242 243 250 256 259 266 272 279
139 144 152 158 160 170 174 176 176 188 198 202 213 207 197 188 199 212 222 229 230 226 219 215 222 227 223 217 217 221 225 231 231 230 234 240 246 253 258 260 269 276 280
138 142 151 156 157 158 162 172 182 195 200 201 199 198 200 216 219 221 228 231 230 231 220 212 221 232 234 230 220 211 222 231 230 222 229 241 247 251 253 257 266 275 280
148 159 172 173 165 171 183 189 193 196 199 202 203 206 211 219 224 227 230 232 229 225 219 221 224 227 234 232 226 223 229 234 230 222 220 227 239 250 256 265 270 272 276
158 170 183 184 183 189 194 196 199 201 205 209 210 212 214 217 229 235 234 232 230 234 237 235 227 226 227 224 223 225 236 241 241 237 228 219 234 249 260 266 270 277 278
162 176 187 181 183 188 190 194 200 203 206 211 213 216 217 220 230 238 232 224 232 241 246 244 238 234 226 218 221 229 237 240 241 248 244 232 236 249 258 263 269 271 275
Height
1540 1541 1542 1543 1544 1545 1546 1547 1548 1549 1549 1550 1550 1551 1551 1552 1552 1552 1552 1552 1552 1552 1552 1552 1552 1552 1552 1552 1551 1551 1550 1550 1549 1549 1549 1549 1548 1547 1546 1545 1544 1542 1541
1538 1539 1541 1542 1543 1544 1545 1545 1546 1547 1548 1548 1549 1549 1550 1550 1550 1551 1551 1551 1551 1551 1551 1551 1551 1551 1550 1550 1550 1549 1549 1549 1548 1547 1547 1547 1546 1546 1545 1543 1542 1541 1540
1536 1538 1539 1540 1541 1542 1543 1544 1545 1545 1546 1547 1547 1548 1548 1548 1549 1549 1549 1549 1549 1549 1549 1549 1549 1549 1549 1548 1548 1548 1547 1547 1547 1546 1545 1545 1544 1544 1542 1541 1540 1539 1538
1534 1536 1537 1538 1539 1541 1542 1542 1543 1544 1544 1545 1545 1546 1546 1547 1547 1547 1547 1547 1548 1547 1547 1547 1547 1547 1547 1547 1546 1546 1546 1545 1545 1544 1543 1543 1542 1541 1540 1539 1538 1537 1536
1532 1534 1535 1537 1538 1539 1540 1541 1542 1542 1543 1543 1543 1544 1544 1545 1545 1545 1546 1546 1546 1546 1546 1545 1545 1545 1545 1545 1544 1544 1543 1543 1542 1541 1541 1540 1539 1538 1537 1536 1535 1534 1533
1530 1531 1533 1535 1536 1537 1538 1539 1540 1540 1541 1541 1541 1542 1542 1543 1543 1543 1544 1544 1544 1543 1543 1543 1543 1543 1543 1542 1542 1542 1541 1540 1540 1539 1538 1537 1536 1536 1535 1534 1533 1531 1529
1527 1529 1531 1532 1534 1535 1536 1537 1538 1538 1539 1539 1540 1540 1540 1541 1541 1541 1541 1542 1541 1541 1541 1541 1541 1540 1540 1540 1539 1539 1538 1538 1538 1537 1535 1534 1534 1533 1532 1531 1530 1528 1527
1525 1527 1528 1530 1531 1533 1534 1535 1536 1536 1537 1537 1538 1538 1538 1539 1539 1540 1539 1539 1539 1539 1539 1538 1538 1538 1537 1537 1536 1536 1535 1535 1534 1533 1533 1532 1531 1530 1529 1528 1526 1525 1524
1523 1524 1526 1528 1529 1530 1531 1533 1534 1534 1535 1535 1536 1536 1536 1537 1537 1537 1537 1537 1536 1536 1536 1536 1535 1535 1534 1534 1533 1532 1532 1531 1531 1530 1529 1528 1528 1527 1526 1524 1523 1521 1519
1520 1522 1523 1525 1526 1528 1529 1530 1532 1532 1533 1533 1534 1534 1534 1534 1535 1535 1534 1534 1533 1533 1533 1533 1532 1532 1531 1531 1530 1529 1528 1527 1527 1526 1525 1524 1523 1522 1522 1520 1519 1517 1515
1518 1519 1521 1523 1524 1525 1527 1528 1529 1530 1531 1531 1531 1532 1532 1532 1532 1532 1532 1531 1530 1530 1530 1529 1529 1529 1528 1527 1527 1526 1525 1524 1523 1522 1521 1520 1519 1518 1517 1516 1515 1514 1512
1515 1517 1518 1520 1522 1523 1524 1525 1527 1527 1528 1528 1528 1529 1529 1529 1529 1529 1529 1528 1528 1527 1526 1526 1526 1525 1525 1524 1523 1522 1522 1521 1519 1518 1517 1515 1514 1514 1513 1512 1511 1510 1508
1512 1514 1515 1517 1519 1520 1521 1522 1523 1524 1525 1525 1525 1525 1525 1526 1526 1526 1526 1525 1525 1524 1523 1523 1522 1522 1521 1520 1519 1519 1518 1517 1515 1514 1513 1512 1511 1510 1509 1508 1507 1505 1504
1509 1511 1512 1514 1516 1517 1518 1519 1520 1521 1521 1522 1522 1522 1522 1522 1522 1522 1522 1522 1521 1521 1520 1519 1519 1518 1517 1516 1516 1515 1514 1513 1512 1511 1510 1509 1508 1506 1505 1503 1502 1501 1499
1507 1508 1510 1511 1513 1514 1515 1516 1517 1518 1519 1519 1519 1519 1519 1519 1519 1519 1519 1518 1518 1517 1516 1516 1515 1514 1513 1512 1511 1510 1510 1509 1508 1507 1506 1505 1503 1502 1500 1499 1498 1496 1494
1503 1505 1506 1508 1509 1510 1512 1513 1514 1515 1516 1517 1517 1517 1516 1517 1516 1516 1516 1515 1514 1514 1513 1511 1510 1510 1509 1508 1507 1506 1506 1505 1504 1503 1502 1501 1499 1498 1496 1495 1493 1492 1490
1500 1502 1503 1504 1506 1507 1508 1509 1510 1511 1512 1513 1513 1513 1513 1513 1513 1512 1512 1511 1511 1510 1509 1507 1506 1506 1505 1504 1503 1502 1501 1501 1500 1499 1498 1496 1495 1494 1492 1490 1489 1487 1485
1498 1499 1500 1501 1502 1504 1505 1506 1506 1507 1507 1508 1509 1510 1510 1509 1509 1509 1508 1507 1506 1505 1504 1504 1503 1502 1501 1500 1499 1498 1497 1496 1495 1494 1493 1492 1491 1489 1487 1486 1484 1483 1481
1495 1496 1497 1499 1499 1500 1502 1503 1503 1504 1504 1504 1505 1505 1506 1505 1505 1505 1504 1503 1501 1501 1500 1499 1499 1498 1497 1496 1495 1494 1493 1492 1491 1490 1489 1488 1486 1485 1483 1481 1479 1478 1476
1493 1494 1495 1496 1496 1497 1498 1499 1500 1500 1501 1500 1500 1501 1501 1500 1500 1499 1499 1498 1497 1496 1496 1495 1494 1493 1492 1491 1490 1489 1488 1487 1487 1486 1484 1483 1482 1480 1478 1477 1475 1473 1471
1491 1492 1492 1493 1494 1494 1495 1496 1496 1497 1497 1497 1497 1497 1497 1496 1496 1495 1495 1494 1493 1493 1492 1491 1490 1489 1488 1487 1486 1485 1484 1483 1482 1481 1480 1478 1477 1475 1474 1472 1470 1468 1467
1489 1489 1489 1490 1491 1491 1492 1492 1493 1493 1493 1493 1493 1493 1493 1492 1492 1491 1491 1490 1489 1489 1488 1487 1486 1485 1484 1483 1482 1481 1479 1478 1477 1476 1474 1473 1472 1470 1469 1467 1465 1464 1462
1486 1486 1486 1487 1487 1488 1489 1489 1489 1489 1489 1489 1489 1489 1488 1488 1487 1487 1486 1486 1485 1484 1484 1483 1482 1481 1479 1478 1477 1476 1475 1474 1473 1471 1470 1468 1467 1465 1464 1462 1461 1459 1457
1482 1483 1483 1483 1484 1485 1485 1485 1485 1485 1485 1485 1485 1484 1484 1484 1483 1483 1482 1482 1481 1480 1479 1478 1477 1476 1475 1473 1472 1471 1470 1469 1468 1466 1465 1463 1462 1460 1459 1457 1456 1454 1452
1479 1480 1480 1480 1481 1481 1481 1481 1481 1481 1481 1481 1481 1480 1480 1480 1479 1478 1478 1477 1476 1475 1474 1474 1473 1471 1470 1469 1468 1466 1465 1464 1463 1462 1460 1459 1457 1456 1454 1452 1451 1449 1447
1476 1476 1477 1477 1477 1478 1478 1477 1477 1477 1477 1477 1477 1476 1476 1476 1475 1474 1473 1472 1472 1471 1470 1469 1468 1466 1465 1464 1463 1462 1461 1460 1458 1457 1456 1454 1452 1450 1449 1447 1445 1444 1442